[[{"header":{"parameterUnit":"m.s-1","parameterCategory":1,"la1":30.2991,"la2":30.254,"lo1":-89.0895,"lo2":-89.0444,"dy":0.0017,"dx":0.0017,"nx":28,"ny":28,"refTime":"2025-05-22T21:00:00:Z","depth":0,"parameterNumber":2,"parameterNumberName":"U-component_of_WINDS"},"data":[0,0,0,0,0,0,0,0,0,0,0,0,0,0,0,0,0,0,0,0,0,0,0,0,0,0,0,0,0,0,0,0,0,0,0,0,0,0,0,0,0,0,0,0,0,0,0,0,0,0,0,0,0,0,0,0,0,0,0.1296,0.1297,0,0.1323,0.1324,0.1324,0.1333,0.1332,0.1332,0.1332,0.1358,0.1359,0.136,0,0,0,0,0,0,0,0,0,0,0,0,0,0.125,0.1251,0.1296,0.1297,0.1297,0.1323,0.1324,0.1324,0.1333,0.1332,0.1332,0.1332,0.1358,0.1359,0.136,0,0,0,0,0,0,0,0,0,0,0,0,0,0.1273,0.1251,0.1296,0.1305,0.1306,0.1323,0.1324,0.1324,0.1333,0.1332,0.1332,0.1332,0.1357,0.1359,0.136,0.1371,0,0,0.1363,0.1364,0,0,0,0,0,0,0,0,0.1272,0.1275,0.1303,0.1304,0.1305,0.1324,0.1317,0.134,0.1333,0.1322,0.1332,0.1332,0.1347,0.1349,0.1354,0.1372,0.1373,0.1363,0.1364,0.1365,0.1365,0,0,0,0,0,0,0,0.127,0.1274,0.1307,0.1303,0.1305,0.1306,0.1309,0.1321,0.1335,0.1323,0.1324,0.1327,0.1347,0.1353,0.1355,0.1373,0.1363,0.1364,0.1365,0.1366,0.14,0.1401,0,0,0,0,0,0,0.1268,0.1272,0.1306,0.1308,0.1288,0.1307,0.1311,0.1318,0.1335,0.1337,0.1327,0.1327,0.1351,0.1354,0.1356,0.1369,0.1365,0.1366,0.1366,0.14,0.14,0.1401,0,0,0,0,0,0,0.1267,0.127,0.1305,0.129,0.1295,0.1308,0.1317,0.1319,0.1325,0.1338,0.134,0.1331,0.1351,0.1354,0.1367,0.137,0.1366,0.1367,0.14,0.14,0.1401,0.1396,0,0,0,0,0,0,0.1265,0.127,0.1275,0.129,0.1296,0.1316,0.1317,0.132,0.1327,0.1328,0.1342,0.1344,0.1351,0.1365,0.1368,0.1372,0.1368,0.14,0.14,0.14,0.1396,0.1397,0.1397,0,0,0,0,0,0.1263,0.1272,0.1275,0.1279,0.1302,0.1316,0.1319,0.1328,0.1327,0.1332,0.134,0.1344,0.137,0.1366,0.137,0.1374,0.1399,0.14,0.14,0.1396,0.1397,0.1397,0,0,0,0,0,0,0.1256,0.1274,0.1278,0.1292,0.1303,0.1318,0.1324,0.1328,0.1339,0.1338,0.1348,0.1351,0.1363,0.137,0.1366,0.1385,0.1385,0.1386,0.138,0.1381,0.1381,0.1379,0.1369,0,0,0,0,0,0.1256,0.1267,0.1282,0.1293,0.1299,0.131,0.1317,0.1323,0.1334,0.1338,0.1348,0.1358,0.1368,0.1375,0.1385,0.1397,0.14,0.1402,0.1402,0.1402,0.1403,0.141,0.1411,0.1402,0.1402,0.1402,0,0,0.1257,0.1268,0.1274,0.1292,0.1301,0.1312,0.1314,0.1325,0.1333,0.134,0.1352,0.136,0.1371,0.1384,0.139,0.139,0.1406,0.1403,0.1403,0.1404,0.141,0.1411,0.1412,0.1403,0.1402,0.1402,0,0,0.1262,0.1272,0.1282,0.1291,0.1305,0.1313,0.1315,0.133,0.1335,0.1348,0.1353,0.1362,0.138,0.1388,0.1395,0.1403,0.1407,0.1406,0.1407,0.1414,0.1414,0.1415,0.1418,0.1419,0.1407,0.1407,0.1407,0,0.1261,0.1277,0.1287,0.1298,0.1305,0.1313,0.1322,0.133,0.1346,0.1351,0.1351,0.1374,0.1382,0.1397,0.1399,0.1404,0.1406,0.1405,0.1414,0.1414,0.1415,0.1418,0.1419,0.1407,0.1407,0.1407,0.1407,0,0.1274,0.1286,0.1292,0.1308,0.1316,0.1326,0.1337,0.1344,0.1349,0.1356,0.1369,0.138,0.1392,0.1396,0.1401,0.1411,0.141,0.1412,0.1412,0.1416,0.1418,0.1419,0.1407,0.1407,0.1407,0.1407,0,0,0.1276,0.1297,0.1299,0.1307,0.1322,0.1331,0.1341,0.1354,0.1359,0.137,0.1378,0.1393,0.1395,0.1402,0.1408,0.1414,0.1419,0.1414,0.1415,0.1415,0.143,0.1429,0.143,0.1422,0.1422,0.1422,0.1429,0,0.1284,0.1303,0.1312,0.1327,0.1337,0.1344,0.1353,0.1363,0.137,0.1379,0.1387,0.1397,0.1399,0.1403,0.1409,0.1417,0.1422,0.1417,0.1429,0.1429,0.1425,0.1431,0.143,0.1436,0.143,0.1431,0.1431,0,0.1295,0.1306,0.1322,0.1336,0.1341,0.1349,0.1361,0.137,0.1381,0.1386,0.1394,0.14,0.141,0.1409,0.1423,0.1419,0.1425,0.143,0.143,0.1431,0.143,0.1432,0.1439,0.144,0.1433,0.1432,0.1432,0,0.1294,0.1313,0.1325,0.1331,0.1348,0.1353,0.136,0.1372,0.1379,0.1389,0.1394,0.1405,0.1411,0.1419,0.1428,0.1426,0.1441,0.1441,0.1445,0.1444,0.1447,0.1447,0.1454,0.1451,0.1451,0.1451,0.1451,0,0.1301,0.1311,0.1325,0.1332,0.1343,0.1353,0.1363,0.137,0.138,0.1389,0.1396,0.1403,0.1414,0.1423,0.1429,0.144,0.1442,0.1446,0.1448,0.1445,0.1445,0.1449,0.1448,0.1451,0.1451,0.1451,0.1451,0,0.1302,0.1312,0.1326,0.134,0.1344,0.1352,0.1364,0.1371,0.1379,0.1389,0.1392,0.1404,0.1415,0.1424,0.1438,0.1442,0.1453,0.1455,0.1449,0.145,0.1453,0.1453,0.1463,0.1465,0.1461,0.1461,0.1461,0,0.1306,0.1313,0.1329,0.1335,0.1343,0.1353,0.136,0.137,0.1377,0.139,0.1396,0.1407,0.1417,0.1434,0.1443,0.1454,0.1456,0.1459,0.1457,0.1455,0.1455,0.1455,0.1455,0.1459,0.1459,0.1459,0.1459,0,0.1311,0.1316,0.1326,0.1338,0.1347,0.1357,0.1367,0.1371,0.1383,0.139,0.1402,0.1409,0.1424,0.1435,0.1447,0.1454,0.1458,0.1459,0.146,0.1458,0.1454,0.1456,0.1449,0.1459,0.1459,0.1459,0.1459,0.1459,0.1313,0.132,0.1332,0.1343,0.1352,0.1361,0.1369,0.1377,0.1387,0.14,0.1405,0.1416,0.1427,0.1444,0.145,0.1459,0.146,0.1462,0.1462,0.1463,0.1462,0.1453,0.1461,0.1461,0.1461,0.1461,0.1461,0,0.1319,0.1327,0.1337,0.1351,0.136,0.1364,0.1375,0.1382,0.1392,0.1402,0.1411,0.1424,0.1435,0.1445,0.1456,0.1461,0.1464,0.1464,0.1464,0.1465,0.1461,0.1459,0.1462,0.1462,0.1462,0.1462,0.1462,0.1462,0.1322,0.1334,0.134,0.1356,0.1364,0.1376,0.1382,0.139,0.1398,0.1412,0.1421,0.1428,0.1438,0.145,0.146,0.1463,0.1466,0.1466,0.1469,0.1465,0.1465,0.1465,0.1463,0.1467,0.1467,0.1472,0.1472,0.1472]},{"header":{"parameterUnit":"m.s-1","parameterCategory":1,"la1":30.2991,"la2":30.254,"lo1":-89.0895,"lo2":-89.0444,"dy":0.0017,"dx":0.0017,"nx":28,"ny":28,"refTime":"2025-05-22T21:00:00:Z","depth":0,"parameterNumber":3,"parameterNumberName":"V-component_of_WINDS"},"data":[0,0,0,0,0,0,0,0,0,0,0,0,0,0,0,0,0,0,0,0,0,0,0,0,0,0,0,0,0,0,0,0,0,0,0,0,0,0,0,0,0,0,0,0,0,0,0,0,0,0,0,0,0,0,0,0,0,0,1.2091,1.2091,0,1.2072,1.2072,1.2072,1.2029,1.2028,1.2027,1.2027,1.2007,1.2007,1.2008,0,0,0,0,0,0,0,0,0,0,0,0,0,1.2088,1.2088,1.2091,1.2091,1.209,1.2072,1.2072,1.2072,1.2029,1.2028,1.2027,1.2026,1.2007,1.2007,1.2008,0,0,0,0,0,0,0,0,0,0,0,0,0,1.2081,1.2088,1.2091,1.2067,1.2065,1.2072,1.2072,1.2072,1.203,1.2028,1.2027,1.2026,1.2007,1.2007,1.2008,1.2037,0,0,1.2009,1.2009,0,0,0,0,0,0,0,0,1.2082,1.2081,1.2071,1.2069,1.2066,1.2052,1.2064,1.206,1.203,1.2043,1.2027,1.2025,1.2023,1.2022,1.2021,1.2036,1.2035,1.2009,1.201,1.201,1.201,0,0,0,0,0,0,0,1.2082,1.2082,1.2084,1.2071,1.2068,1.2057,1.2054,1.2063,1.2041,1.2042,1.2039,1.2037,1.2021,1.2021,1.2021,1.2035,1.2009,1.201,1.201,1.201,1.2071,1.2072,0,0,0,0,0,0,1.2086,1.2083,1.2084,1.2083,1.2071,1.2058,1.2055,1.2058,1.204,1.2036,1.2038,1.2035,1.2021,1.202,1.202,1.2052,1.201,1.201,1.201,1.2069,1.2071,1.2072,0,0,0,0,0,0,1.2086,1.2087,1.2085,1.2082,1.2081,1.2059,1.2062,1.2058,1.2058,1.2038,1.2033,1.2042,1.202,1.2019,1.2033,1.2051,1.201,1.2011,1.2068,1.207,1.2072,1.2117,0,0,0,0,0,0,1.2087,1.2087,1.2099,1.2083,1.2081,1.2099,1.2064,1.2059,1.2059,1.2054,1.204,1.2037,1.2019,1.2032,1.2033,1.205,1.2011,1.2066,1.2069,1.2071,1.2114,1.212,1.2126,0,0,0,0,0,1.2087,1.2112,1.2099,1.21,1.2095,1.21,1.2099,1.2078,1.206,1.2071,1.2058,1.2037,1.2048,1.2034,1.2035,1.2052,1.2065,1.2068,1.2071,1.2111,1.2119,1.2126,0,0,0,0,0,0,1.2131,1.211,1.2095,1.2117,1.211,1.2093,1.2106,1.2088,1.2086,1.2082,1.2056,1.2054,1.207,1.2063,1.2047,1.2079,1.2053,1.2056,1.2083,1.2091,1.2097,1.2098,1.2011,0,0,0,0,0,1.2144,1.215,1.213,1.2151,1.2149,1.2128,1.2129,1.2114,1.2106,1.2103,1.2091,1.2084,1.2086,1.2088,1.2089,1.2112,1.2108,1.2125,1.2131,1.2136,1.2139,1.2149,1.2156,1.2082,1.2082,1.2082,0,0,1.2169,1.2158,1.2164,1.216,1.2153,1.2159,1.2126,1.2134,1.2138,1.2104,1.2116,1.2107,1.2097,1.2116,1.2123,1.211,1.2158,1.2139,1.2144,1.2144,1.2153,1.216,1.2166,1.2084,1.2084,1.2084,0,0,1.2219,1.2212,1.2227,1.2221,1.2211,1.2197,1.2201,1.2185,1.2178,1.2189,1.2163,1.2168,1.2172,1.2166,1.2163,1.2209,1.2189,1.221,1.2241,1.2252,1.2257,1.2262,1.2278,1.2284,1.2213,1.2213,1.2213,0,1.2252,1.2261,1.2238,1.2248,1.2246,1.2215,1.223,1.2225,1.2216,1.2215,1.22,1.2204,1.2195,1.2211,1.2222,1.2221,1.2224,1.2211,1.2258,1.2263,1.2267,1.2282,1.2288,1.2215,1.2215,1.2215,1.2215,0,1.2301,1.2308,1.2322,1.2313,1.2313,1.2326,1.2304,1.2306,1.229,1.2278,1.2289,1.2277,1.2274,1.2277,1.2262,1.229,1.2282,1.2263,1.2237,1.2277,1.229,1.2296,1.2219,1.2218,1.2217,1.2217,0,0,1.238,1.2358,1.2363,1.2358,1.2344,1.2348,1.2359,1.2356,1.2358,1.2352,1.236,1.2363,1.2345,1.2342,1.2326,1.2335,1.2371,1.2315,1.2314,1.2325,1.24,1.2414,1.2421,1.2357,1.2358,1.2359,1.24,0,1.2426,1.2443,1.2422,1.2443,1.2448,1.2417,1.2426,1.2418,1.2406,1.2408,1.2394,1.2397,1.2373,1.2371,1.2379,1.2365,1.2385,1.2361,1.2363,1.2364,1.2367,1.2428,1.2443,1.2483,1.2405,1.2406,1.2407,0,1.2482,1.2479,1.2501,1.2484,1.2485,1.2493,1.2488,1.2491,1.248,1.247,1.2467,1.2447,1.2454,1.2429,1.2439,1.2423,1.2422,1.2416,1.2416,1.2416,1.2388,1.2428,1.2495,1.2501,1.2415,1.2414,1.2414,0,1.2536,1.2537,1.255,1.2547,1.2528,1.2534,1.2526,1.2515,1.2514,1.2509,1.2508,1.2504,1.2502,1.25,1.2479,1.2462,1.2491,1.2464,1.2482,1.2483,1.249,1.249,1.2557,1.249,1.249,1.249,1.249,0,1.259,1.2604,1.2574,1.2581,1.2596,1.2571,1.2586,1.2575,1.2565,1.2569,1.2543,1.2547,1.252,1.2521,1.2505,1.2515,1.2514,1.2506,1.2501,1.2508,1.2509,1.2508,1.2504,1.2492,1.2491,1.2491,1.2491,0,1.2653,1.2633,1.2645,1.2626,1.2621,1.2632,1.2615,1.2621,1.2607,1.2613,1.2613,1.259,1.259,1.2569,1.2565,1.2554,1.2571,1.2561,1.2574,1.2571,1.2591,1.2589,1.2659,1.2667,1.2595,1.2596,1.2597,0,1.2689,1.2699,1.268,1.2681,1.2675,1.2677,1.2675,1.2651,1.265,1.2639,1.2646,1.2644,1.2641,1.2642,1.2625,1.2621,1.2611,1.2636,1.261,1.2616,1.2611,1.261,1.2611,1.2641,1.2642,1.2643,1.2644,0,1.2753,1.2742,1.2742,1.2737,1.2736,1.2732,1.2725,1.2727,1.27,1.2701,1.2701,1.2698,1.2693,1.2691,1.2684,1.2675,1.2655,1.2652,1.2656,1.2663,1.267,1.2665,1.2589,1.265,1.265,1.2649,1.2649,1.2648,1.2803,1.281,1.2798,1.2797,1.279,1.2784,1.2788,1.2774,1.2773,1.2767,1.2753,1.2755,1.2742,1.2731,1.2723,1.2724,1.2711,1.2718,1.2719,1.2721,1.2724,1.267,1.2723,1.2722,1.2722,1.2722,1.2722,0,1.2866,1.2856,1.2856,1.2847,1.2847,1.2827,1.2818,1.2819,1.2821,1.2812,1.2809,1.2808,1.2805,1.2787,1.2783,1.2786,1.2777,1.2786,1.2785,1.2783,1.2736,1.2733,1.2794,1.2794,1.2794,1.2794,1.2794,1.2794,1.2898,1.2909,1.2896,1.2902,1.2892,1.2894,1.289,1.2885,1.2877,1.2877,1.2874,1.2863,1.2849,1.2843,1.284,1.2834,1.2833,1.2846,1.2837,1.2794,1.2787,1.278,1.2777,1.2846,1.2846,1.2884,1.2885,1.2885]}]]